Weather History for Barrow, AK

Change the Weather History Date:

Thursday, May 8, 2014

  Actual Average Record
Temperature  
Mean Temperature 19 °F 17 °F  
Max Temperature 25 °F 22 °F 35 °F (1985)
Min Temperature 12 °F 12 °F -11 °F (1944)
Degree Days  
Heating Degree Days 46 48  
Month to date heating degree days 308 404  
Since 1 July heating degree days 15963 17551  
Cooling Degree Days 0    
Month to date cooling degree days 0  
Year to date cooling degree days 0  
Moisture  
Dew Point 17 °F    
Average Humidity 0    
Maximum Humidity 0    
Minimum Humidity 0    
Precipitation  
Precipitation T in 0.01 in 0.09 in (1940)
Month to date precipitation 0.07 0.04  
Year to date precipitation 0.79 0.56  
Snow  
Snow T in 0.10 in 1.20 in (1940)
Month to date snowfall 0.2 0.8  
Since 1 July snowfall 48.4 35.1  
Snow Depth 3.00 in    
Sea Level Pressure  
Sea Level Pressure 30.05 in    
Wind  
Wind Speed 7 mph (South)    
Max Wind Speed 13 mph    
Max Gust Speed 16 mph    
Visibility 10 miles    
Events Snow    
T = Trace of Precipitation, MM = Missing Value Source: NWS Daily Summary

Daily Weather History Graph

Daily Weather History Graph

Search for Another Location

Airport:

Trip Planner

Search our weather history database for the weather conditions in past years. The results will help you decide how hot, cold, wet, or windy it might be!

Date:

Astronomy

May. 08, 2014 Rise Set
Actual Time 3:30 AM AKDT 1:28 AM AKDT
Civil Twilight Sun does not rise Sun does not rise
Nautical Twilight Sun does not rise Sun does not rise
Astronomical Twilight Sun does not rise Sun does not rise
Moon 2:59 PM AKDT (5/8) 4:50 AM AKDT (5/8)
Length of Visible Light 24h 00m
Length of Day
21h 57m
Waxing Gibbous, 66% of the Moon is Illuminated
May 8
Waxing Gibbous
May 14
Full
May 21
Last Quarter
May 28
New
Jun 5
First Quarter

Hourly Weather History & Observations

Time (AKDT) Temp. Windchill Dew Point Humidity Pressure Visibility Wind Dir Wind Speed Gust Speed Precip Events Conditions
12:53 AM 16.0 °F 4.4 °F 14.0 °F 92% 29.97 in 10.0 mi SSW 9.2 mph - N/A   Partly Cloudy
1:53 AM 14.0 °F 2.9 °F 12.0 °F 92% 29.97 in 10.0 mi South 8.1 mph - N/A   Clear
2:53 AM 14.0 °F 2.0 °F 12.0 °F 92% 29.98 in 10.0 mi South 9.2 mph - N/A   Mostly Cloudy
3:53 AM 15.1 °F 1.8 °F 12.0 °F 88% 29.99 in 10.0 mi SSW 11.5 mph - N/A   Overcast
4:53 AM 12.9 °F 1.6 °F 10.9 °F 92% 29.99 in 10.0 mi SSW 8.1 mph - N/A   Clear
5:53 AM 12.0 °F 1.5 °F 10.0 °F 92% 30.00 in 10.0 mi SW 6.9 mph - N/A   Clear
6:41 AM 12.9 °F 2.6 °F 9.0 °F 84% 30.00 in 10.0 mi SW 6.9 mph - N/A   Scattered Clouds
6:53 AM 14.0 °F 3.9 °F 12.2 °F 93% 30.00 in 10.0 mi SW 6.9 mph - N/A   Mostly Cloudy
7:11 AM 15.1 °F 7.7 °F 12.9 °F 91% 30.00 in 10.0 mi SW 4.6 mph - N/A   Overcast
7:53 AM 18.0 °F 11.1 °F 17.1 °F 96% 30.01 in 10.0 mi WSW 4.6 mph - N/A   Overcast
8:53 AM 19.9 °F 14.9 °F 19.9 °F 100% 30.02 in 10.0 mi SW 3.5 mph - N/A   Overcast
9:53 AM 21.0 °F 13.4 °F 19.9 °F 96% 30.03 in 10.0 mi South 5.8 mph - N/A   Overcast
10:53 AM 21.9 °F 14.5 °F 21.0 °F 96% 30.04 in 10.0 mi South 5.8 mph - N/A   Overcast
11:17 AM 21.9 °F 14.5 °F 19.9 °F 92% 30.03 in 10.0 mi South 5.8 mph - N/A   Overcast
11:53 AM 21.9 °F 14.5 °F 21.0 °F 96% 30.04 in 10.0 mi SSW 5.8 mph - N/A   Overcast
12:53 PM 21.2 °F 12.6 °F 21.2 °F 100% 30.05 in 10.0 mi WSW 6.9 mph - N/A   Overcast
1:53 PM 21.9 °F 15.7 °F 19.9 °F 92% 30.06 in 10.0 mi SW 4.6 mph - N/A   Overcast
2:53 PM 23.0 °F 18.4 °F 19.9 °F 88% 30.06 in 10.0 mi South 3.5 mph - N/A   Overcast
3:03 PM 23.0 °F 15.8 °F 19.9 °F 88% 30.06 in 10.0 mi South 5.8 mph - N/A   Overcast
3:53 PM 23.0 °F 15.8 °F 18.0 °F 81% 30.07 in 10.0 mi South 5.8 mph - N/A   Overcast
4:53 PM 24.1 °F - 18.0 °F 77% 30.08 in 10.0 mi Calm Calm - N/A   Overcast
5:53 PM 23.0 °F 18.4 °F 17.1 °F 78% 30.09 in 10.0 mi East 3.5 mph - N/A   Overcast
6:53 PM 23.0 °F 14.7 °F 19.0 °F 85% 30.09 in 10.0 mi SSE 6.9 mph - N/A   Overcast
7:32 PM 23.0 °F 14.7 °F 19.0 °F 85% 30.10 in 10.0 mi East 6.9 mph - N/A   Overcast
7:53 PM 21.9 °F 13.4 °F 19.0 °F 89% 30.11 in 10.0 mi East 6.9 mph - N/A   Overcast
8:53 PM 21.9 °F 12.5 °F 19.0 °F 89% 30.11 in 10.0 mi ESE 8.1 mph - N/A   Overcast
9:53 PM 19.9 °F 8.6 °F 18.0 °F 92% 30.12 in 10.0 mi SE 10.4 mph - N/A   Overcast
10:34 PM 19.9 °F 7.9 °F 18.0 °F 92% 30.12 in 10.0 mi ESE 11.5 mph - 0.00 in Snow Light Snow
10:53 PM 19.9 °F 8.6 °F 17.1 °F 89% 30.13 in 9.0 mi SE 10.4 mph - 0.00 in Snow Light Snow
11:53 PM 19.0 °F 7.5 °F 17.1 °F 92% 30.14 in 9.0 mi SE 10.4 mph - 0.00 in Snow Light Snow